Denver, CO

12:44 PM MDT on May 25, 2017 (GMT -0600)
Denver International

Weather History for KDEN - February, 2012

Change the Weather History Date:

Saturday, February 4, 2012

  Actual Average Record
Temperature  
Mean Temperature 22 °F 31 °F  
Max Temperature 32 °F 45 °F 77 °F (1890)
Min Temperature 11 °F 17 °F -22 °F (1883)
Degree Days  
Heating Degree Days 43 34  
Month to date heating degree days 137 136  
Since 1 July heating degree days 3462 3667  
Cooling Degree Days 0 0  
Month to date cooling degree days 0 0  
Year to date cooling degree days 0 0  
Moisture  
Dew Point 18 °F    
Average Humidity 78    
Maximum Humidity 92    
Minimum Humidity 63    
Precipitation  
Precipitation 0.01 in 0.01 in 0.45 in (1959)
Month to date precipitation 0.79 0.05  
Year to date precipitation 1.05 0.46  
Snow  
Snow 1.90 in - - ()
Month to date snowfall 15.9  
Since 1 July snowfall 50.3  
Snow Depth 11.00 in    
Sea Level Pressure  
Sea Level Pressure 30.45 in    
Wind  
Wind Speed 8 mph (NW)    
Max Wind Speed 22 mph    
Max Gust Speed 24 mph    
Visibility 7 miles    
Events Fog , Snow    
T = Trace of Precipitation, MM = Missing Value Source: NWS Daily Summary

Daily Weather History Graph

Daily Weather History Graph

Search for Another Location

Airport or City:

Trip Planner

Search our weather history database for the weather conditions in past years. The results will help you decide how hot, cold, wet, or windy it might be!

Date:

Astronomy

Feb. 04, 2012 Rise Set
Actual Time 7:04 AM MST 5:21 PM MST
Civil Twilight 6:36 AM MST 5:49 PM MST
Nautical Twilight 6:03 AM MST 6:21 PM MST
Astronomical Twilight 5:32 AM MST 6:53 PM MST
Moon 2:21 PM MST (2/4) 4:31 AM MST (2/4)
Length of Visible Light 11h 13m
Length of Day
10h 16m
Waxing Gibbous, 89% of the Moon is Illuminated
Feb 4
Waxing Gibbous
Feb 7
Full
Feb 14
Last Quarter
Feb 21
New
Feb 29
First Quarter

Hourly Weather History & Observations

Time (MST) Temp. Windchill Dew Point Humidity Pressure Visibility Wind Dir Wind Speed Gust Speed Precip Events Conditions
12:32 AM 24.8 °F 10.3 °F 21.2 °F 86% 30.34 in 0.5 mi NNW 20.7 mph - 0.00 in Snow Light Snow
12:53 AM 25.0 °F 11.3 °F 21.9 °F 88% 30.44 in 0.5 mi NNW 18.4 mph - 0.00 in Snow Snow
1:04 AM 24.8 °F 11.5 °F 21.2 °F 86% 30.35 in 2.0 mi NNW 17.3 mph - 0.00 in Snow Light Snow
1:24 AM 24.8 °F 11.1 °F 21.2 °F 86% 30.35 in 2.0 mi NNW 18.4 mph - 0.00 in Snow Light Snow
1:53 AM 25.0 °F 11.7 °F 21.9 °F 88% 30.45 in 2.0 mi NNW 17.3 mph - 0.00 in Snow Light Snow
2:00 AM 24.8 °F 11.9 °F 21.2 °F 86% 30.36 in 1.5 mi NNW 16.1 mph - 0.00 in Snow Light Snow
2:17 AM 24.8 °F 11.1 °F 21.2 °F 86% 30.36 in 3.0 mi NNW 18.4 mph - 0.00 in Snow Light Snow
2:42 AM 24.8 °F 12.4 °F 19.4 °F 80% 30.36 in 9.0 mi NNW 15.0 mph - 0.00 in   Overcast
2:53 AM 23.0 °F 10.6 °F 19.9 °F 88% 30.46 in 9.0 mi NNW 13.8 mph - 0.00 in   Overcast
3:12 AM 23.0 °F 11.1 °F 19.4 °F 86% 30.36 in 8.0 mi NNW 12.7 mph - N/A   Overcast
3:31 AM 23.0 °F 11.7 °F 19.4 °F 86% 30.36 in 7.0 mi NNW 11.5 mph - N/A   Overcast
3:53 AM 21.9 °F 9.8 °F 19.9 °F 92% 30.47 in 6.0 mi NNW 12.7 mph - N/A   Overcast
4:34 AM 21.2 °F 9.5 °F 19.4 °F 93% 30.37 in 6.0 mi North 11.5 mph - 0.00 in Snow Light Snow
4:53 AM 21.9 °F 11.0 °F 19.9 °F 92% 30.49 in 10.0 mi North 10.4 mph - 0.00 in Snow Light Snow
5:53 AM 23.0 °F 13.1 °F 19.9 °F 88% 30.49 in 10.0 mi North 9.2 mph - 0.00 in Snow Light Snow
6:53 AM 23.0 °F 15.8 °F 19.9 °F 88% 30.50 in 10.0 mi North 5.8 mph - 0.00 in Snow Light Snow
7:53 AM 24.1 °F 17.0 °F 19.9 °F 84% 30.51 in 8.0 mi NNW 5.8 mph - 0.00 in Snow Light Snow
8:25 AM 24.8 °F 17.9 °F 19.4 °F 80% 30.42 in 2.5 mi WNW 5.8 mph - 0.00 in Snow Light Snow
8:53 AM 24.1 °F 16.0 °F 19.9 °F 84% 30.53 in 2.5 mi West 6.9 mph - 0.00 in Snow Light Snow
9:53 AM 25.0 °F 18.1 °F 21.0 °F 85% 30.53 in 3.0 mi West 5.8 mph - 0.01 in Snow Light Snow
10:53 AM 27.0 °F 21.6 °F 21.0 °F 78% 30.51 in 8.0 mi WSW 4.6 mph - 0.00 in Snow Light Snow
11:23 AM 26.6 °F 18.2 °F 21.2 °F 80% 30.42 in 10.0 mi WSW 8.1 mph - 0.00 in   Mostly Cloudy
11:53 AM 27.0 °F 19.5 °F 21.0 °F 78% 30.50 in 10.0 mi WSW 6.9 mph - 0.00 in   Mostly Cloudy
12:53 PM 30.9 °F 26.2 °F 21.0 °F 67% 30.46 in 10.0 mi WNW 4.6 mph - N/A   Mostly Cloudy
1:53 PM 30.9 °F - 19.9 °F 64% 30.44 in 10.0 mi Calm Calm - N/A   Mostly Cloudy
2:53 PM 28.0 °F 22.8 °F 21.0 °F 75% 30.46 in 10.0 mi East 4.6 mph - N/A   Mostly Cloudy
3:53 PM 26.1 °F 21.9 °F 19.0 °F 75% 30.48 in 10.0 mi ESE 3.5 mph - N/A   Mostly Cloudy
4:53 PM 26.1 °F - 19.0 °F 75% 30.48 in 10.0 mi Calm Calm - N/A   Scattered Clouds
5:53 PM 25.0 °F 20.7 °F 18.0 °F 75% 30.48 in 10.0 mi South 3.5 mph - N/A   Scattered Clouds
6:53 PM 21.9 °F 13.4 °F 12.9 °F 68% 30.50 in 10.0 mi SW 6.9 mph - N/A   Scattered Clouds
7:53 PM 19.0 °F 11.1 °F 12.0 °F 74% 30.51 in 10.0 mi SW 5.8 mph - N/A   Scattered Clouds
8:53 PM 19.0 °F 7.5 °F 12.0 °F 74% 30.51 in 10.0 mi SSW 10.4 mph - N/A   Scattered Clouds
9:53 PM 10.9 °F -1.8 °F 6.1 °F 81% 30.54 in 10.0 mi South 9.2 mph - N/A   Scattered Clouds
10:53 PM 12.0 °F -2.7 °F 7.0 °F 80% 30.52 in 10.0 mi South 12.7 mph - N/A   Mostly Cloudy
11:53 PM 12.0 °F -2.0 °F 7.0 °F 80% 30.52 in 10.0 mi South 11.5 mph - N/A   Mostly Cloudy